Location: Salionze
(45.4000°N, 10.7167°E)
Time: 23:16:10
(UTC+00:00)

Daily predictions for brighter satellites

Satellite Brightness Start Highest point End
(mag) Time Altitude Azimuth Time Altitude Azimuth Time Altitude Azimuth
Cosmos 1437 Rocket 3.8 19:01:44 10° SSE 19:04:55 25° E 19:08:11 10° NE
X-37B 0.6 19:04:00 10° WSW 19:07:12 74° S 19:10:23 10° E
BREEZE-M R/B 3.0 19:05:45 10° SSW 19:08:15 25° SSE 19:10:21 10° E
Cosmos 1408 Rocket 3.7 19:04:44 10° N 19:09:09 82° W 19:13:34 10° S
Cosmos 1603 4.3 19:03:49 10° NNW 19:09:23 57° WSW 19:14:52 10° S
MOS 1 4.4 19:04:25 10° SSE 19:10:02 69° ENE 19:15:41 10° N
Cosmos 1842 Rocket 3.6 19:06:54 10° S 19:11:21 86° E 19:15:52 10° N
MOS 1-B Rocket 4.4 19:08:12 10° NNE 19:16:01 74° ESE 19:22:33 10° S
Cosmos 921 Rocket 3.6 19:12:49 10° NNW 19:17:02 57° WSW 19:21:09 10° S
Lacrosse 5 rocket 4.0 19:14:54 10° W 19:17:12 14° WSW 19:19:32 10° SSW
Cosmos 2208 Rocket 4.2 19:13:04 10° NNW 19:18:31 82° WSW 19:23:58 10° SSE
ARIANE 5 R/B 4.4 19:20:20 10° ESE 19:23:07 17° ENE 19:25:54 10° NNE
Cosmos 1242 Rocket 4.1 19:21:33 11° SE 19:23:43 18° E 19:26:11 10° NE
SJ-6B 3.5 19:21:24 10° S 19:25:09 54° W 19:29:03 10° NNW
DELTA 2 R/B (1) 4.0 19:20:12 10° WSW 19:25:32 47° S 19:30:35 11° ESE
Cosmos 1805 Rocket 4.0 19:22:04 10° N 19:26:14 44° ENE 19:30:15 11° SSE
Cosmos 1745 Rocket 4.3 19:20:45 10° N 19:26:49 51° ENE 19:32:46 10° SSE
Cosmos 1633 Rocket 4.5 19:31:51 10° NNE 19:35:20 22° ENE 19:37:53 14° ESE
Resurs 1-3 3.7 19:30:57 10° SSE 19:35:20 83° WSW 19:39:46 10° NNW
OBJECT-B 2.6 19:36:21 10° SSW 19:39:15 30° W 19:42:11 10° NNW
Cosmos 2278 Rocket 4.1 19:39:21 10° E 19:39:50 10° E 19:40:41 10° E
Cosmos 1743 Rocket 3.8 19:35:51 10° NNW 19:40:10 72° W 19:44:30 10° S
USA 186 4.3 19:41:50 10° SW 19:43:13 13° W 19:44:34 10° WNW
FALCON 9 DEB 3.3 19:42:42 10° WNW 19:45:39 48° SW 19:47:23 21° SSE
S3M 4.1 19:39:21 10° S 19:45:40 66° E 19:51:57 10° NNE
OE (NEXTSAT) 4.3 19:42:53 10° W 19:46:21 86° NNW 19:49:43 11° E
SL-4 R/B 2.3 19:44:34 10° WNW 19:48:59 70° SSW 19:52:14 19° SE
Cosmos 2263 Rocket 4.4 19:44:19 10° WSW 19:49:06 29° NW 19:53:57 10° N
Cosmos 1606 3.1 19:46:25 10° SSW 19:50:08 63° W 19:53:55 10° N
Cosmos 1503 Rocket 4.4 19:45:23 10° S 19:50:12 41° ESE 19:55:04 10° NE
FALCON 9 DEB 3.7 19:49:23 10° WNW 19:52:14 39° SW 19:53:46 22° SSE
Cosmos 1500 Rocket 4.3 19:48:13 10° NNW 19:52:31 52° W 19:56:44 10° S
ERS-1 Rocket 4.2 19:51:03 16° ESE 19:53:59 27° ENE 19:58:08 10° N
Cosmos 1844 Rocket 2.6 19:48:30 10° SSW 19:54:02 80° ESE 19:59:40 10° NNE
Intercosmos 25 Rocket 4.4 19:51:20 10° NNW 19:58:17 70° W 20:02:30 10° S
FALCON 9 DEB 3.4 19:56:32 10° WNW 19:59:28 44° SW 20:00:44 27° SSE
Cosmos 1666 Rocket 4.0 19:55:55 10° N 20:00:11 46° ENE 20:02:37 23° SE
IGS 5A 3.4 19:57:46 15° SSE 20:01:08 86° WSW 20:05:19 10° NNW
MetOp-B 4.1 19:57:55 16° SSE 20:02:12 76° ENE 20:07:35 10° N
USA 245 2.8 20:04:38 33° E 20:04:44 33° ENE 20:06:49 10° N
Cosmos 1553 Rocket 4.4 19:58:55 10° SSW 20:04:58 64° W 20:11:09 10° N
Ariane Rocket 4.1 20:01:11 10° SSW 20:05:55 41° W 20:10:42 10° NNW
Intercosmos 24 3.7 20:02:59 10° S 20:07:00 86° W 20:10:34 10° N
SPOT 5 3.9 20:04:34 20° ESE 20:07:14 34° ENE 20:11:53 10° N
Resurs 01 Rocket 2.1 20:06:20 13° S 20:10:15 61° W 20:14:40 10° NNW
Cosmos 1844 3.7 20:05:18 10° SSW 20:11:02 88° ESE 20:16:45 10° NNE
SPOT 1/Viking Rocket 3.6 20:07:26 20° SSE 20:11:02 72° ENE 20:16:15 10° N
Cosmos 1812 4.2 20:11:09 20° E 20:11:21 20° E 20:14:12 10° NE
CZ-4C R/B 3.7 20:06:02 10° NNW 20:12:41 43° NE 20:18:50 16° ESE
Meteor 1-26 Rocket 4.3 20:10:03 14° S 20:14:54 60° E 20:20:24 10° NNE
USA 290 2.1 20:14:01 10° NNW 20:17:16 85° ENE 20:18:18 40° SSE
ATLAS 5 CENTAUR R/B 2.4 20:14:50 10° NW 20:20:24 72° NE 20:24:16 25° SE
Cosmos 1354 Rocket 3.9 20:15:36 10° S 20:20:46 66° ESE 20:25:59 10° NNE
Terra 2.9 20:19:12 23° ESE 20:21:07 31° ENE 20:25:16 10° N
SJ 16-02 3.3 20:24:22 15° E 20:24:22 15° E 20:26:12 10° ENE
SPOT 3 Rocket 4.1 20:19:56 14° S 20:24:19 54° W 20:29:23 10° NNW
Cosmos 1933 3.6 20:20:51 11° SSW 20:24:39 67° W 20:28:41 10° N
Sich 1 3.6 20:21:01 10° NNW 20:25:15 56° W 20:28:19 18° SSW
Cosmos 1833 Rocket 3.6 20:22:14 10° NNW 20:27:26 36° NE 20:30:16 22° ESE
Cosmos 1666 3.9 20:31:13 10° NNE 20:34:22 25° ENE 20:34:37 25° E
CZ-2C R/B 4.2 20:34:46 10° N 20:39:10 58° WNW 20:43:35 10° SSW
X-37B 0.5 20:40:37 10° W 20:43:44 75° SSW 20:43:44 75° SSW
NOSS 3-3 (A) 3.8 20:40:50 10° SSW 20:46:26 66° ESE 20:52:51 10° NE
NOSS 3-3 (C) 3.8 20:40:56 10° SSW 20:46:33 65° ESE 20:52:58 10° NE
BREEZE-M DEB (TANK) 2.6 20:45:18 10° WNW 20:47:13 32° N 20:47:13 32° N
Cosmos 1151 Rocket 3.3 20:46:11 24° SSW 20:48:46 68° W 20:53:09 10° N
H-2A R/B 3.8 20:46:46 10° NNE 20:50:49 44° E 20:50:59 44° ESE
ATLAS 2AS CENTAUR R/B 4.2 20:44:22 10° NNW 20:50:52 30° NNE 20:56:50 11° E
Cosmos 1782 3.3 20:50:08 26° SSW 20:52:12 59° W 20:56:10 10° N
Meteor 2-6 Rocket 4.3 20:50:49 38° SSE 20:52:35 55° E 20:57:56 10° NNE
COSMOS 2406 3.5 20:47:07 10° NNW 20:52:41 54° ENE 20:54:50 35° ESE
Milstar 3 4.4 20:44:00 10° SW 20:53:00 24° S 20:53:33 24° S
Cosmos 1538 Rocket 4.4 20:51:46 10° NNW 20:57:02 51° ENE 20:58:41 37° ESE
Cosmos 1242 Rocket 4.3 20:55:28 12° SW 20:58:20 29° WNW 21:01:30 10° N
Cosmos 2082 Rocket 3.3 20:53:23 10° N 20:58:27 33° NE 21:00:42 25° E
ARIANE 5 R/B 3.1 20:57:35 34° SSW 20:59:10 54° W 21:03:26 10° NNW
Cosmos 1437 3.3 21:02:00 50° NW 21:02:00 50° NW 21:04:23 10° N
Cosmos 1515 Rocket 3.4 21:01:07 54° SSE 21:02:03 75° E 21:06:28 10° NNE
Cosmos 1500 3.2 21:00:01 10° NNW 21:03:45 68° W 21:04:14 59° SW
Meteor 1-11 Rocket 4.3 21:00:11 10° N 21:05:57 47° ENE 21:07:42 37° ESE
Iridium 4 Rocket 3.7 21:05:32 41° SSE 21:07:34 75° E 21:13:28 10° N
USA 307 4.3 21:03:59 10° NW 21:07:57 35° NNE 21:10:04 22° ENE
DELTA 2 R/B (1) 4.4 21:06:28 10° W 21:11:20 33° SSW 21:11:20 33° SSW
Cosmos 2184 Rocket 4.0 21:06:00 10° N 21:12:15 71° E 21:14:20 43° SSE
Cosmos 1633 Rocket 4.3 21:09:12 10° NNW 21:13:13 36° W 21:14:58 25° SW
Cosmos 2084 3.2 21:12:45 68° SSW 21:13:14 83° SE 21:17:30 10° NE
Cosmos 1271 Rocket 3.2 21:14:00 49° ENE 21:14:00 49° ENE 21:17:28 10° NNE
Cosmos 773 Rocket 4.2 21:08:23 10° NNW 21:13:39 66° WSW 21:15:14 43° S
Spot 2 Rocket 4.4 21:11:39 26° SSW 21:13:56 41° W 21:18:43 10° NNW
Cosmos 158 Rocket 4.4 21:12:59 10° N 21:17:40 45° ENE 21:18:31 41° E
Cosmos 1340 Rocket 4.5 21:17:13 10° NNE 21:20:18 23° ENE 21:20:18 23° ENE
Cosmos 2074 Rocket 3.9 21:15:04 10° N 21:21:24 85° E 21:23:34 45° SSE
USA 308 4.1 21:17:24 10° NW 21:21:28 39° NNE 21:23:00 29° ENE
Cosmos 1470 Rocket 4.2 21:17:09 10° NNW 21:21:31 51° W 21:22:34 41° SW
Cosmos 2278 Rocket 2.1 21:21:07 45° S 21:22:52 74° ESE 21:28:31 10° NNE
SL-4 R/B 4.4 21:25:21 10° W 21:27:47 16° SW 21:27:47 16° SW
Cosmos 1536 3.6 21:24:44 10° N 21:28:14 42° ENE 21:28:14 42° ENE
Nadezhda 1 Rocket 4.1 21:27:37 47° SSE 21:29:16 63° E 21:35:28 10° NNE
Meteor 1-10 Rocket 4.1 21:28:44 49° S 21:30:18 88° E 21:35:58 10° NNE
ERS-1 Rocket 3.8 21:31:03 33° SW 21:32:34 42° W 21:37:21 10° NNW
Cosmos 1933 Rocket 3.9 21:31:56 10° NNW 21:36:11 54° W 21:36:35 52° WSW
Cosmos 1777 Rocket 4.5 21:36:27 27° SW 21:39:08 57° WNW 21:44:17 10° NNE
Meteor 2-12 Rocket 4.3 21:34:42 10° N 21:40:49 86° E 21:42:16 55° SSE
Cosmos 1610 Rocket 4.4 21:37:01 10° N 21:43:12 80° E 21:44:36 56° SSE
SPOT 5 4.2 21:43:47 28° SW 21:45:15 34° W 21:49:57 10° NNW
Cosmos 1812 4.2 21:46:10 28° W 21:46:54 30° WNW 21:50:21 10° NNW
Cosmos 1544 4.3 21:44:34 10° N 21:47:00 35° NNE 21:47:00 35° NNE
Cosmos 1943 Rocket 3.7 21:49:39 21° E 21:49:39 21° E 21:52:46 10° NE
Cosmos 923 Rocket 4.1 21:45:01 10° NNW 21:50:15 64° ENE 21:50:49 59° E
Cosmos 2341 Rocket 4.3 21:46:58 10° N 21:53:13 53° ENE 21:54:31 46° ESE
Cosmos 1898 Rocket 4.3 21:54:05 38° E 21:54:05 38° E 21:58:22 10° NE
Cosmos 2228 Rocket 3.2 21:55:42 69° W 21:55:42 69° W 22:00:08 10° N
Terra 3.0 21:58:05 31° WSW 21:58:48 33° W 22:03:05 10° NNW
Cosmos 1733 Rocket 4.1 21:56:15 10° N 21:59:46 36° ENE 21:59:46 36° ENE
CZ-4C R/B 3.2 21:54:25 10° NW 22:01:40 61° WSW 22:04:01 46° S
SJ 16-02 1.8 22:01:18 53° W 22:01:41 55° WNW 22:06:03 10° NNE
USA 305 3.3 21:59:58 10° NW 22:03:49 62° N 22:03:49 62° N
ATLAS 5 CENTAUR R/B 3.8 22:00:07 10° WNW 22:04:50 25° WSW 22:05:48 24° SW
Spot 4 3.9 22:06:45 68° ENE 22:06:47 68° ENE 22:11:38 10° N
Cosmos 1833 Rocket 3.4 22:06:10 10° NW 22:11:24 39° WSW 22:11:58 38° WSW
Cosmos 1743 3.7 22:08:14 10° N 22:11:01 45° N 22:11:01 45° N
Cosmos 2218 Rocket 4.4 22:08:00 10° N 22:14:04 50° ENE 22:15:08 45° ESE
Cosmos 2297 4.0 22:17:33 51° E 22:17:33 51° E 22:22:39 10° NE
Cosmos 990 Rocket 3.9 22:19:54 82° E 22:19:54 82° E 22:25:04 10° NNE
USA 306 3.7 22:19:00 10° NW 22:22:09 48° NW 22:22:09 48° NW
SL-24 R/B - RUBIN 2 4.4 22:18:45 10° NNW 22:24:11 52° NE 22:24:49 49° ENE
Meteor 1-27 Rocket 4.3 22:25:11 43° WSW 22:26:38 53° WNW 22:32:25 10° N
NOSS 3-4 (A) 3.8 22:22:02 10° NW 22:29:03 71° WSW 22:30:35 57° S
Cosmos 2112 Rocket 3.9 22:23:45 10° NNW 22:29:09 88° ENE 22:29:12 87° ESE
NOSS 3-4 (C) 3.8 22:22:08 10° NW 22:29:09 71° SW 22:30:42 57° S
Cosmos 1862 Rocket 4.2 22:40:02 52° NNE 22:40:02 52° NNE 22:43:22 10° NNE
Cosmos 2082 Rocket 2.8 22:37:23 10° NW 22:42:32 43° WSW 22:42:32 43° WSW
ATLAS 2AS CENTAUR R/B 2.6 22:35:24 10° NW 22:42:49 90° NE 22:44:14 61° SE
USA 215 3.3 22:40:07 37° ESE 22:42:55 73° NNE 22:49:27 10° NW
SeaSat 1 3.5 22:38:21 10° NE 22:41:44 33° ENE 22:41:44 33° ENE
Cosmos 44 3.6 22:39:14 10° NNW 22:44:41 70° NE 22:44:53 69° ENE
SL-8 Rocket 3.9 22:39:35 10° N 22:45:56 83° W 22:46:43 70° SSW
Meteor 1-19 Rocket 4.0 22:47:55 82° E 22:47:55 82° E 22:53:16 10° NNE
USA 307 4.4 22:43:55 10° WNW 22:46:10 30° WNW 22:46:10 30° WNW
Okean 1 4.4 22:52:12 43° NNW 22:52:12 43° NNW 22:55:03 10° N
Cosmos 1238 Rocket 3.8 22:47:49 10° NNW 22:54:10 68° W 22:54:36 66° WSW
ALOS 2 3.2 22:55:17 53° NW 22:55:17 53° NW 22:58:47 10° NNW
Cosmos 1680 Rocket 4.1 22:52:27 10° NNW 22:57:07 45° W 22:57:07 45° W
Cosmos 1818 3.7 22:53:10 10° NNW 22:58:39 65° NE 22:59:08 62° E
DNEPR-1 R/B 4.1 23:00:00 70° E 23:00:00 70° E 23:04:39 10° NE
Thor Agena Rocket 3.8 22:54:42 10° NNE 22:59:31 59° E 22:59:31 59° E
Cosmos 1937 Rocket 3.5 23:02:14 73° NW 23:02:14 73° NW 23:07:17 10° NNE
Cosmos 2084 Rocket 4.3 23:02:29 10° NNW 23:05:57 50° N 23:05:57 50° N
Cosmos 2278 Rocket 4.3 23:03:14 10° W 23:07:33 22° NW 23:11:54 10° N
RESURS DK-1 4.2 23:08:13 10° N 23:11:39 24° NE 23:12:06 24° ENE
Cosmos 864 Rocket 4.5 23:09:01 10° NNW 23:15:07 63° W 23:15:36 61° WSW
Okean 1-7 3.9 23:17:43 45° NE 23:17:43 45° NE 23:20:49 10° NNE
Cosmos 2242 Rocket 4.2 23:18:18 52° NNE 23:18:18 52° NNE 23:21:46 10° NNE
Cosmos 1975 4.2 23:13:36 10° NNW 23:16:07 36° NNW 23:16:07 36° NNW
Cosmos 2369 Rocket 2.3 23:18:48 62° E 23:18:48 62° E 23:24:05 10° NNE
Cosmos 2181 Rocket 4.5 23:24:48 43° WSW 23:25:51 47° WNW 23:31:47 10° N
ATLAS CENTAUR R/B 4.0 23:30:19 10° ENE 23:30:19 10° ENE 23:30:26 10° ENE
USA 281 4.2 23:27:09 22° ESE 23:30:57 42° NE 23:37:02 10° NNW
Cosmos 1943 Rocket 2.5 23:31:08 55° W 23:31:47 58° WNW 23:37:20 10° NNE
Meteor 2-4 Rocket 3.7 23:31:38 72° WSW 23:31:57 74° WNW 23:37:40 10° N
Cosmos 2263 4.3 23:35:39 63° ESE 23:35:39 63° ESE 23:41:21 10° NNE
Cosmos 2150 Rocket 4.3 23:38:19 57° E 23:38:19 57° E 23:43:18 10° NNE
Okean 2 Rocket 4.5 23:36:18 10° N 23:40:13 30° ENE 23:40:15 30° ENE
SL-16 R/B 4.2 23:38:19 13° ESE 23:42:42 27° ENE 23:47:49 10° N
Cosmos 1821 Rocket 3.9 23:38:38 10° N 23:45:04 81° W 23:45:52 69° SSW
Cosmos 1867 3.8 23:50:03 59° ESE 23:50:03 59° ESE 23:55:06 10° NE
Cosmos 1934 Rocket 4.1 23:46:56 10° N 23:53:06 68° E 23:54:14 56° SE
BREEZE-M DEB (TANK) 3.9 23:43:20 10° WNW 23:52:56 61° WSW 23:52:56 61° WSW
